Presure
151 147 136 137 130 131 135 133 133 152 162 141 126 148 129 127 142 128 120 135 125 134 133 133 123 140 140 124 143 140 168 137 179 156 143 145 172 142 131 211 214 238 224 285
131 148 148 134 138 137 131 134 132 143 138 124 161 128 124 130 134 133 141 129 121 134 128 137 139 129 141 140 137 126 155 151 157 143 161 151 139 138 133 136 223 191 160 181
136 133 148 147 134 132 137 130 140 146 150 154 151 129 135 132 129 149 130 132 126 139 135 131 136 124 139 141 129 126 127 150 146 145 161 160 178 157 140 136 136 179 217 188
156 136 131 146 145 137 137 136 135 155 126 157 136 132 131 153 131 134 136 148 138 130 131 135 129 133 130 140 135 129 132 139 129 133 128 148 147 151 161 136 172 142 161 177
146 142 148 153 143 148 135 116 130 148 152 135 167 135 174 132 154 135 142 131 143 123 138 131 127 132 133 127 135 131 120 122 132 135 147 139 149 156 151 151 140 151 136 172
238 147 133 148 140 140 139 134 138 120 147 154 132 162 140 147 140 145 139 133 144 139 138 121 130 131 132 134 126 130 131 131 135 123 131 148 130 146 158 153 151 136 128 139
233 163 138 137 145 149 144 134 131 141 145 121 159 136 121 143 129 164 140 138 123 167 138 130 133 133 135 136 134 128 127 131 120 132 127 146 129 128 144 133 156 160 145 133
235 234 157 91 132 143 91 140 137 141 121 130 150 132 139 124 140 167 146 131 139 159 131 131 128 141 132 130 140 123 129 125 132 121 128 130 127 133 131 138 152 156 151 148
232 226 171 152 147 140 151 142 143 141 142 137 131 146 117 144 147 172 140 134 136 123 132 141 139 142 129 133 135 137 122 124 127 127 128 133 122 122 132 124 139 147 144 132
232 227 232 165 159 134 147 135 133 143 140 118 148 151 160 128 149 171 142 141 174 157 136 142 126 129 132 138 131 142 145 125 119 125 128 130 123 142 131 131 129 141 158 133
219 223 223 249 139 158 140 133 148 131 104 145 111 132 165 135 144 153 149 149 176 147 161 156 133 125 130 138 129 132 141 132 139 123 123 125 132 122 140 124 122 116 126 132
243 235 218 218 166 150 157 159 137 150 140 141 151 143 90 145 158 132 178 119 188 145 146 160 148 146 134 125 131 129 126 135 128 136 114 122 146 141 116 131 116 127 122 124
238 231 216 133 236 166 152 155 133 137 155 138 147 152 150 134 120 137 126 122 151 182 150 132 141 131 131 155 114 127 139 134 130 117 135 120 121 136 163 120 133 113 128 126
232 219 233 209 242 239 166 150 159 159 155 140 137 133 116 134 157 125 164 128 137 140 127 129 138 128 113 536 149 117 137 125 125 125 135 116 136 128 141 120 152 123 124 125
261 226 214 234 239 238 251 164 153 158 149 141 149 132 159 146 166 150 134 120 166 154 125 147 123 120 125 119 120 125 124 125 128 124 129 135 128 135 135 133 125 120 122 136
241 269 221 220 221 238 234 251 165 171 147 139 142 147 93 151 165 130 164 149 134 140 129 127 108 114 128 127 124 131 133 127 133 123 129 130 126 134 134 135 112 135 127 138
236 242 250 223 253 219 237 231 252 166 167 149 151 158 138 141 157 148 132 148 128 123 148 121 131 130 134 126 124 133 123 133 134 133 130 129 126 125 132 132 129 132 133 129
254 240 239 252 269 249 208 245 232 259 178 169 181 169 169 147 124 137 149 150 128 157 167 154 130 159 158 130 170 124 132 124 136 124 126 131 133 132 131 127 134 128 127 126
263 258 266 241 235 248 270 263 232 230 257 222 180 161 149 149 132 135 128 151 119 183 123 116 127 144 153 129 134 126 172 140 132 116 128 124 128 121 124 120 114 131 123 116
349 335 360 259 243 246 248 262 274 297 277 251 241 171 175 131 144 157 146 122 137 124 139 151 128 190 133 143 148 168 136 125 157 124 125 139 133 129 122 123 120 120 120 124
289 304 340 365 248 247 240 274 256 271 285 252 242 234 168 143 117 102 164 146 135 125 133 152 164 125 138 160 174 141 124 115 165 111 127 133 133 135 139 140 148 133 133 130
254 281 301 314 348 243 236 242 291 256 275 269 252 224 228 172 139 115 150 151 169 155 169 153 124 170 138 168 148 134 130 157 159 148 144 138 123 142 128 153 130 140 135 118
250 243 269 264 294 328 234 235 241 259 257 266 265 243 205 263 225 171 160 169 145 131 139 157 126 143 200 162 108 148 132 164 152 172 133 140 165 165 135 146 151 152 139 141
300 258 248 266 259 284 328 240 236 241 249 268 270 263 232 212 224 220 183 179 169 172 179 142 148 137 143 142 128 135 124 157 153 147 154 174 131 129 160 167 152 157 155 195
282 292 308 293 293 285 290 298 239 236 238 250 271 267 257 231 223 229 218 191 194 171 180 216 228 170 159 150 150 162 158 152 135 136 159 145 162 158 165 161 149 134 139 181
295 284 303 311 314 291 294 286 279 242 236 247 256 261 277 240 249 222 227 238 227 218 183 210 204 188 175 172 153 155 157 152 141 151 176 159 151 141 156 143 126 134 134 111
Wind_Speed
67 65 55 55 46 42 45 39 43 41 40 39 34 36 29 27 19 19 13 15 11 10 12 13 5 21 22 19 25 26 36 29 35 44 32 39 46 39 28 38 39 38 36 25
51 69 69 52 51 47 42 43 42 38 40 35 41 39 27 30 24 22 14 17 15 11 10 15 17 14 21 20 22 17 33 27 42 34 38 41 32 31 30 35 41 41 44 40
58 55 67 66 56 52 54 48 49 48 48 45 47 39 36 32 28 27 24 21 19 15 13 12 15 8 20 18 17 16 16 32 31 33 36 43 40 45 34 30 32 47 49 42
78 56 48 62 65 57 54 51 53 59 43 55 49 42 38 37 31 29 27 22 21 19 16 14 12 14 14 16 16 14 18 21 15 23 18 39 41 42 43 30 46 40 49 54
71 64 66 71 63 67 55 44 47 59 56 47 60 47 57 38 35 32 31 29 23 25 21 17 13 14 14 12 14 12 11 11 17 20 29 30 36 42 42 45 32 43 35 51
77 70 57 73 66 62 64 59 58 46 61 60 49 58 42 40 39 31 38 37 26 27 26 20 19 16 15 12 10 12 10 11 13 7 15 26 15 35 26 34 41 25 22 36
78 84 69 68 69 71 69 67 58 67 62 47 63 47 40 41 40 40 40 39 29 25 32 26 23 20 17 14 11 9 8 10 6 9 8 21 16 18 30 25 36 34 24 26
78 77 91 20 59 73 21 72 65 71 53 52 58 50 43 48 47 46 41 43 37 32 34 28 27 17 18 15 9 8 8 6 7 3 5 8 10 15 19 30 30 30 30 30
79 86 98 79 76 69 83 75 77 73 77 49 54 67 44 57 54 60 49 47 39 34 39 34 31 24 21 19 14 13 9 8 6 5 4 3 4 6 11 10 23 30 26 24
73 78 80 92 86 66 83 63 53 71 65 47 77 82 77 47 52 58 49 50 49 47 44 32 30 29 25 18 20 14 12 12 10 9 6 4 2 9 7 9 9 24 21 17
73 76 84 74 74 94 79 65 83 65 34 82 35 52 89 48 46 57 47 53 40 51 37 40 33 33 28 22 22 17 17 16 13 15 12 10 8 7 4 5 8 6 9 14
71 76 84 88 104 94 97 98 70 84 68 74 86 66 15 57 69 59 79 36 68 51 46 43 36 32 27 29 27 24 25 22 19 12 17 16 9 11 9 4 10 5 3 3
66 71 83 44 86 106 97 100 66 75 94 66 77 79 84 68 39 54 45 41 53 63 47 40 36 30 20 34 29 30 32 19 24 23 19 23 21 16 19 15 9 12 8 6
70 78 77 91 80 90 107 90 103 102 90 71 67 57 50 58 76 50 63 52 47 49 46 45 41 36 36 40 38 35 31 28 36 28 24 28 22 25 21 23 17 16 14 13
53 76 85 76 77 84 80 108 99 104 90 71 86 63 82 69 90 59 50 53 68 57 53 54 41 47 50 45 38 42 42 38 39 32 32 30 30 27 26 26 28 25 22 19
61 49 81 79 77 79 86 82 113 119 92 68 72 69 26 61 93 46 86 54 64 61 60 55 43 50 58 59 52 52 50 52 45 39 35 35 33 32 32 32 28 28 28 24
63 62 60 79 74 90 81 95 89 117 119 98 87 82 66 61 88 88 75 81 70 68 74 59 70 66 70 62 57 61 49 53 48 46 41 42 37 36 36 37 35 36 32 34
57 64 68 63 53 70 98 85 95 91 121 111 123 101 101 79 70 83 91 82 66 85 98 87 68 83 80 69 75 53 60 51 56 46 43 47 46 42 41 39 43 42 37 37
55 57 62 68 71 70 66 74 97 101 90 107 125 102 90 95 78 83 69 85 54 101 67 52 66 75 78 60 68 58 80 72 57 45 48 47 51 44 44 41 41 47 42 38
16 22 26 68 77 78 71 69 68 71 87 98 100 122 119 70 90 108 87 63 72 66 77 87 74 114 67 71 74 78 69 59 74 52 54 65 59 57 50 51 47 45 46 46
5 12 21 32 76 74 78 74 74 73 80 96 101 101 119 89 45 33 113 84 71 65 66 86 98 64 73 83 90 78 63 49 76 52 58 64 62 64 68 69 72 64 63 60
23 10 21 25 39 79 78 76 63 76 77 91 101 104 106 128 85 58 101 76 107 70 108 90 66 106 82 91 74 68 68 80 80 77 74 68 59 72 62 74 65 70 67 50
38 44 32 42 26 51 83 88 82 76 84 88 95 103 132 93 113 130 107 108 89 64 73 79 70 75 111 93 52 76 75 88 84 87 72 73 71 76 75 82 81 80 77 75
32 44 45 44 62 46 47 91 83 81 84 89 93 103 108 122 120 127 140 132 111 109 122 78 79 77 80 80 71 79 70 84 83 80 73 95 74 68 87 81 85 85 79 91
21 30 34 44 45 49 52 58 93 88 90 91 89 95 103 114 121 122 129 139 139 114 118 104 112 108 94 88 88 104 94 85 80 82 90 80 84 79 80 89 84 69 75 89
18 23 24 31 37 49 51 63 79 93 95 96 95 92 89 111 115 125 123 123 129 129 134 134 132 129 122 116 95 98 100 93 85 90 116 94 87 85 86 85 63 76 77 44
Wind_Direction
215 215 216 213 215 209 213 209 212 223 216 206 217 202 199 202 206 200 218 167 203 141 126 111 147 72 58 83 62 71 47 65 45 64 76 72 53 70 69 52 56 64 64 85
217 215 215 213 214 216 216 216 212 205 220 225 218 209 223 205 202 202 207 204 230 169 175 113 94 113 67 65 71 67 61 52 63 77 55 70 76 73 73 67 60 57 56 60
219 219 215 214 214 215 216 213 221 223 228 225 225 211 210 216 210 218 199 209 205 168 164 157 118 165 83 72 92 82 70 69 65 66 58 53 55 51 72 71 66 63 62 61
214 220 217 217 216 218 216 217 223 222 225 228 212 212 222 225 213 214 207 213 212 207 184 166 169 133 132 90 91 94 80 68 77 74 69 60 59 56 53 70 67 64 62 62
217 217 214 214 220 219 218 221 221 226 226 225 231 211 239 215 202 217 206 206 200 219 175 191 197 164 136 147 109 107 109 88 76 76 61 75 61 46 54 55 63 52 62 66
207 214 217 215 216 217 215 221 222 226 231 228 213 226 206 207 212 215 208 205 203 209 184 229 196 187 165 148 156 128 109 91 65 54 71 56 75 50 59 58 53 58 62 60
203 208 216 219 217 217 216 220 220 225 226 223 228 224 219 209 220 242 212 209 219 225 194 202 197 192 175 170 162 163 144 122 112 49 52 61 67 68 54 65 53 50 63 65
201 200 210 229 213 215 208 220 219 224 218 212 231 223 214 223 218 234 204 216 207 226 212 210 210 199 197 199 191 195 180 163 130 141 58 47 55 58 64 57 50 57 51 52
204 204 211 216 210 216 217 221 220 221 223 218 211 233 220 221 207 244 213 215 212 228 213 211 206 204 208 203 197 197 225 216 206 174 154 72 7 7 66 82 50 54 62 72
205 207 210 214 213 224 221 222 221 221 224 223 228 232 229 220 215 236 213 211 246 202 216 217 217 219 208 211 217 253 254 233 250 235 224 216 237 16 35 41 71 62 49 59
205 209 209 210 217 214 225 225 222 221 232 224 231 225 235 215 234 221 214 210 232 210 215 213 210 228 221 221 221 225 244 242 228 246 247 237 251 246 8 315 320 355 61 68
210 211 206 208 210 217 219 219 227 224 227 225 227 228 202 227 236 218 242 228 248 214 217 203 206 211 226 237 228 224 230 232 220 233 254 255 263 266 255 230 288 312 306 5
214 213 210 229 212 213 219 218 223 225 226 227 229 232 231 227 230 221 231 237 242 240 212 222 211 220 234 284 243 232 244 235 247 244 245 246 248 273 289 255 249 277 290 297
213 212 215 212 215 214 217 222 222 225 228 227 229 225 236 228 233 233 239 225 224 226 229 226 216 218 243 237 243 235 237 232 239 239 247 248 267 248 271 263 284 261 250 278
216 216 213 216 216 217 218 219 224 225 228 228 229 219 231 239 237 233 230 233 242 221 226 217 222 225 220 249 239 231 236 243 238 237 247 257 248 263 265 247 256 265 266 265
218 223 218 213 216 221 216 220 220 221 228 229 228 226 227 232 231 231 237 232 225 222 228 232 232 232 228 236 243 240 230 238 235 238 242 248 247 260 263 265 264 266 254 271
218 220 223 219 222 218 221 219 221 220 224 225 228 227 223 225 234 235 225 235 227 227 234 228 231 236 230 234 236 235 240 239 238 241 241 248 248 250 258 261 261 255 258 259
228 223 222 223 224 224 221 226 222 222 224 226 228 231 228 232 225 235 237 237 232 236 238 238 225 240 237 232 243 239 239 243 240 242 244 246 252 254 255 255 263 265 242 241
236 228 227 223 224 226 228 225 223 223 224 225 227 231 230 229 230 235 232 239 242 239 227 230 234 234 228 240 236 241 254 240 239 246 244 248 252 251 254 254 251 260 252 257
259 246 230 219 222 227 224 228 229 227 221 224 225 229 228 228 233 235 233 233 218 226 224 239 237 245 236 237 243 252 239 245 250 244 246 252 252 253 253 254 255 255 258 259
286 278 230 208 221 222 226 223 224 227 222 223 222 222 225 235 239 235 233 233 233 235 232 237 242 235 237 244 254 234 241 244 259 238 249 252 251 252 253 253 253 256 259 264
213 259 233 222 212 223 222 227 225 223 224 219 220 220 224 230 233 244 237 238 235 232 237 239 238 244 229 247 238 239 248 255 247 245 248 246 252 249 254 255 258 257 260 260
221 230 223 196 222 223 221 225 223 220 223 221 217 216 223 218 221 230 239 229 232 224 231 239 237 236 237 239 242 240 248 252 239 259 247 247 251 256 258 253 253 253 255 257
234 230 230 225 219 222 219 223 224 225 229 225 221 217 220 223 222 222 231 237 243 242 242 236 240 237 240 243 243 242 251 250 250 244 250 260 251 257 259 265 248 256 254 275
243 245 243 235 231 225 219 217 225 223 227 229 226 223 222 225 226 227 228 234 236 246 244 239 239 247 247 245 247 249 253 248 247 248 253 246 258 249 259 261 250 260 262 265
255 253 250 245 237 230 230 222 223 226 227 231 230 226 223 228 227 232 232 232 232 237 245 242 243 244 246 247 248 249 250 250 247 252 258 255 251 248 252 252 257 258 258 264